www.pogodaiklimat.ru

Погода и климат >> Архив погоды >> Россия >> Краснодарский край >> Кущевская


ПОГОДА в Кущевской

  • Прогноз погоды в Кущевской
  • Монитор погоды в Кущевской

АРХИВ ПОГОДЫ в Кущевской

Время (UTC), дата Ветер
(напр.,м/с)
 
Видим.   Явления Облачность Т
(С)
Тd
(С)
f
(%)
Тe
(С)
Тes
(С)
Комфортность P
(гПа)
Po
(гПа)
Тmin
(С)
Tmax
(С)
R
(мм)
R24
(мм)
S
(см)
12 13.05 З 4 10 км 10/6 600 м
[Cu med, cong Ci fib]
+24.4 +10.8 42 +26 +28 жарко 1018.4 1015.9
15 13.05 З 2 10 км 10/4 1000 м
[Sc diur, vesp Ci fib]
+21.5 +12.6 57 +24 +25 комфорт 1018.0 1015.4 +24.5
18 13.05 З 1 10 км 3/0
[Ci sp]
+17.0 +13.1 78 +18 +18 1018.6 1015.9
21 13.05 ЮЗ 2 10 км 10/10 600 м
[Sc diur, vesp]
+16.1 +12.7 80 +16 +16 1017.9 1015.2
00 14.05 З 1 4000 м дымка {ливн. осадки} ясно +14.7 +12.3 86 +15 +15 1017.1 1014.5
03 14.05 ЮЗ 2 4000 м дымка 4/0
[Ci sp]
+15.1 +13.2 88 +15 +16 1017.0 1014.4 +14.5 0.3
06 14.05 З 3 10 км 10/0
[Cs]
+20.2 +14.8 71 +23 +29 комфорт 1016.9 1014.3
09 14.05 ЮЗ 3 10 км 8/6 1000 м
[Cu med, cong Ci fib]
+24.8 +14.3 52 +27 +33 жарко 1016.6 1014.1
12 14.05 З 4 10 км 6/6 1000 м
[Cu med, cong]
+25.7 +11.6 41 +27 +30 жарко 1016.0 1013.5
15 14.05 З 2
{10}
10 км 8/0
[Ci]
+21.8 +12.0 54 +24 +26 комфорт 1016.0 1013.4 +26.3
18 14.05 ЮЗ 2 10 км 4/0
[Ci fib]
+17.9 +11.4 66 +18 +18 1017.6 1015.0
21 14.05 З 1 10 км 10/0
[Ci]
+16.1 +11.4 74 +17 +17 1017.1 1014.5
00 15.05 З 1 10 км ясно +14.6 +11.1 80 +15 +15 1017.2 1014.5
03 15.05 З 1 4000 м дымка 3/0
[Ci fib]
+13.8 +11.9 88 +14 +15 1017.3 1014.7 +12.8
06 15.05 З 2 10 км 8/0
[Ci fib]
+22.7 +15.4 63 +27 +35 душно 1018.0 1015.4
09 15.05 СЗ 3 10 км 8/4 1000 м
[Cu med, cong Ci fib]
+26.6 +11.9 40 +28 +35 жарко 1017.5 1014.9
12 15.05 СЗ 3 10 км 10/4 1000 м
[Cu med, cong Ci fib]
+29.2 +10.2 31 +29 +34 жарко 1016.9 1014.4
15 15.05 СЗ 2 10 км 10/0
[Ci fib]
+26.6 +9.3 34 +27 +29 жарко 1016.4 1013.8 +29.2
18 15.05 штиль 0 10 км ясно +19.8 +12.6 63 +21 +21 комфорт 1017.1 1014.5
21 15.05 З 1 10 км ясно +15.6 +12.0 79 +16 +16 1016.8 1014.2
00 16.05 штиль 0 4000 м дымка ясно +12.6 +10.8 89 +12 +12 1016.8 1014.1
03 16.05 СВ 1 4000 м дымка ясно +13.2 +12.0 92 +13 +14 1016.5 1013.8 +11.7
06 16.05 СВ 1 10 км 4/0
[Ci fib]
+23.5 +14.5 57 +26 +37 жарко 1016.1 1013.6
09 16.05 В 2 10 км 4/0
[Ci fib]
+28.1 +11.8 36 +29 +45 жарко 1014.9 1012.4
12 16.05 В 2 10 км 4/1 1000 м
[Cu hum Ci fib]
+30.5 +13.1 34 +32 +42 жарко 1013.7 1011.2
15 16.05 СВ 2 10 км ясно +29.0 +13.5 39 +31 +33 жарко 1012.8 1010.3 +30.6
18 16.05 штиль 0 10 км ясно +21.8 +15.6 68 +25 +25 комфорт 1013.3 1010.8
21 16.05 СВ 1 10 км ясно +19.5 +15.1 76 +22 +22 комфорт 1013.5 1010.9
00 17.05 СВ 1 10 км ясно +17.8 +13.9 78 +19 +19 1012.8 1010.2
03 17.05 СВ 1 10 км 10/0
[Ci]
+18.0 +14.1 78 +19 +20 1013.0 1010.4 +16.6
06 17.05 В 3 10 км 10/0
[Ci fib]
+27.4 +14.1 44 +30 +36 жарко 1012.9 1010.4
09 17.05 В 3
{10}
10 км 10/1 1000 м
[Cu hum Ci fib]
+31.5 +11.5 29 +32 +42 жарко 1012.3 1009.8
12 17.05 В 3 10 км 10/6 1000 м
[Cu hum Ci fib]
+32.3 +10.3 26 +32 +35 жарко 1011.3 1008.9
15 17.05 В 2 10 км 10/3 1000 м
[Cu med, cong Ci fib]
+30.2 +11.2 31 +31 +32 жарко 1010.8 1008.3 +32.4
18 17.05 В 1 10 км ясно +24.7 +14.3 52 +27 +27 жарко 1010.8 1008.3
21 17.05 СВ 1 10 км ясно +21.1 +15.8 72 +24 +24 комфорт 1010.5 1008.0
00 18.05 СВ 2 10 км ясно +20.1 +14.6 71 +23 +23 комфорт 1010.2 1007.6
03 18.05 СВ 1 10 км ясно +17.7 +14.7 83 +19 +20 1010.6 1008.0 +17.7
06 18.05 В 3 10 км 8/0
[Ci fib]
+24.0 +14.2 54 +26 +33 жарко 1010.2 1007.7
09 18.05 СВ 3
{11}
10 км 10/0
[Ci sp]
+27.3 +13.0 41 +29 +41 жарко 1009.6 1007.1
12 18.05 В 4
{12}
10 км 10/0
[Ac trans Cs]
+27.4 +11.1 36 +28 +32 жарко 1009.5 1007.0
15 18.05 В 2
{11}
10 км 10/0
[Ac trans Ci fib]
+25.6 +11.6 42 +27 +28 жарко 1008.2 1005.7 +28.9
18 18.05 СВ 1
{10}
10 км 10/0
[Ac trans Ci fib]
+21.2 +11.7 55 +23 +23 комфорт 1008.8 1006.2
21 18.05 СВ 1 10 км 10/0
[Ci fib]
+18.7 +8.5 51 +20 +20 1009.0 1006.4
00 19.05 СВ 2 10 км ясно +17.0 +6.2 49 +17 +17 1008.3 1005.7
03 19.05 СВ 2 10 км 6/0
[Ac cast]
+15.9 +6.8 55 +16 +16 1008.9 1006.3 +15.6
06 19.05 СВ 3 10 км 10/3 1000 м
[Sc Ac trans Ci sp]
+22.2 +12.2 53 +25 +28 комфорт 1010.2 1007.6
09 19.05 СВ 3 10 км 8/6 1000 м
[Sc Cs]
+26.6 +13.1 43 +28 +34 жарко 1010.3 1007.8
12 19.05 В 3 10 км 10/0
[Cs]
+28.0 +11.8 37 +29 +37 жарко 1011.0 1008.5
15 19.05 В 1 10 км 10/10 600 м
[Cb calv]
+28.4 +13.4 40 +30 +30 жарко 1011.6 1009.1
18 19.05 СВ 1 10 км 3/3 1000 м
[Sc]
+20.8 +11.8 56 +24 +24 комфорт 1012.4 1009.9
21 19.05 штиль 0 10 км 9/9 600 м
[Sc]
+16.4 +8.2 58 +16 +16 1013.2 1010.6
00 20.05 штиль 0 10 км 10/10 600 м
[Sc]
+14.5 +7.4 62 +14 +14 1014.1 1011.5
03 20.05 СВ 1 10 км ясно +14.5 +8.3 66 +15 +16 1014.9 1012.3 +13.9
06 20.05 В 2 10 км ясно +24.3 +7.0 33 +24 +34 комфорт 1016.2 1013.6
09 20.05 СВ 3 10 км ясно +27.9 +5.5 24 +27 +42 жарко 1016.7 1014.2

 

Местоположение метеостанции Кущевская (Краснодарский край, Россия): широта 46.53 долгота 39.62 высота над уровнем моря 22 м.

В архиве по умолчанию представлена погода в Кущевской за последнюю неделю. Архивные данные за месяц целиком и за предыдущие месяцы, начиная с января 2011 года, Вы можете получить, выбрав интересующий диапазон дат из раскрывающегося списка и нажав кнопку "Ввод!".


*Определитесь, кто Вы:
робот инопланетянин человек

Внимание! Время в таблицах - всемирное. Для получения местного времени необходимо прибавить поправку, которая равна 3 ч.

Смотрите также архив погоды в соседних городах и на ближайших метеорологических станциях:

Погода в Староминская (Краснодарский край, Россия) (46 км)
Погода в Сосыке (Краснодарский край, Россия) (47 км)
Погода в Зерноград (Ростовская область, Россия) (64 км)
Погода в Каневской (Краснодарский край, Россия) (72 км)
Погода в Маргаритово (Ростовская область, Россия) (72 км)
Погода в Тихорецке (Краснодарский край, Россия) (84 км)
Погода в Ростове-на-Дону (Ростовская область, Россия) (84 км)
Погода в Таганроге (Ростовская область, Россия) (92 км)
Погода в Ейске (Краснодарский край, Россия) (107 км)
Погода в Белой Глине (Краснодарский край, Россия) (109 км)

Пояснения к столбцам:

Ветер - указаны скорость ветра в м/с - средняя за 10 мин, порывы в срок и между сроками (в фигурных скобках) и направление, откуда дует ветер: С - северный, СВ - северо-восточный, В - восточный, ЮВ - юго-восточный, Ю - южный, ЮЗ - юго-западный, З - западный, СЗ - северо-западный.
Видимость - горизонтальная дальность видимости в метрах или километрах. При видимости от 1 до 10 км при отсутствии осадков обычно наблюдается дымка, при ухудшении видимости до 1 км и менее - туман. В сухую погоду видимость может ухудшаться дымом, пылью или мглою.
Явления - указаны атмосферные явления, наблюдавшиеся в срок или в последний час перед сроком; фигурными скобками обозначены явления, наблюдавшиеся между сроками (за 1-3 часа до срока); квадратными скобками обозначены град или гололедные отложения с указанием их диаметра в мм.
Облачность - указаны через наклонную черту общая и нижняя облачность в баллах и высота нижней границы облаков в метрах; квадратными скобками обозначены формы облаков: Ci - перистые, Cs - перисто-слоистые, Cc - перисто-кучевые, Ac - высококучевые, As - высокослоистые, Sc - слоисто-кучевые, Ns - слоисто-дождевые, Cu - кучевые, Cb - кучево-дождевые. Подробнее классификацию облаков см. в Атласе облаков (PDF).
T - Температура воздуха - температура, измеренная на высоте 2 м над землей.
Td - Температура точки росы - температура, при понижении до которой содержащийся в воздухе водяной пар достигнет насыщения.
f - Относительная влажность воздуха - влажноcть воздуха, измеренная на высоте 2 м над землей.
Te - Эффективная температура - температура, которую ощущает одетый по сезону человек в тени. Характеристика душности погоды. При расчете учитывается влияние влажности воздуха и скорости ветра на теплоощущения человека.
Tes - Эффективная температура на солнце - температура, которую ощущает человек, с поправкой на солнечный нагрев. Характеристика знойности погоды. Зависит от высоты солнца над горизонтом, облачности и скорости ветра. Ночью, в пасмурную погоду, а также при ветре 12 м/с и более поправка равна нулю.
P - Атмосферное давление - приведенное к уровню моря атмосферное давление.
Po - Атмосферное давление - измеренное на уровне метеостанции атмосферное давление.
Tmin - Минимальная температура - минимум температуры воздуха на высоте 2 м над землей.
Tmax - Максимальная температура - максимум температуры воздуха на высоте 2 м над землей.
R - Количество осадков - Количество выпавших осадков за период времени, мм. При наведении курсора мыши на число - период времени, за который выпало указанное количество осадков.
R24 - Количество осадков - Количество выпавших осадков за 24 часа, мм.
S - Снежный покров - Высота снежного покрова, см. При наведении курсора мыши на число - состояние снежного покрова и степень покрытия местности в баллах.